Location: Chot?�ovi?ky
(49.7642°N, 13.1037°E)
Time: 22:03:31
(UTC+00:00)

Daily predictions for brighter satellites

Satellite Brightness Start Highest point End
(mag) Time Altitude Azimuth Time Altitude Azimuth Time Altitude Azimuth
In-Cosmos 22 4.3 17:22:44 10° N 17:27:54 49° ENE 17:33:07 10° SSE
NOSS 3-2 (A) 4.1 17:21:17 10° NW 17:28:41 85° NE 17:37:06 10° SE
Cosmos 1048 Rocket 4.2 17:24:46 10° NNW 17:30:01 56° ENE 17:35:17 10° SE
ARGOS 3.8 17:25:28 10° SE 17:30:20 37° ENE 17:35:14 10° N
NOSS 2-2 (C) 3.1 17:26:50 10° SW 17:30:20 75° SE 17:34:20 10° NE
CZ-2C R/B 4.1 17:27:53 10° NE 17:31:22 17° E 17:34:52 10° SE
Cosmos 2082 Rocket 4.0 17:31:34 10° N 17:34:56 16° NNE 17:38:17 10° ENE
Cosmos 1975 Rocket 3.6 17:35:11 10° NNW 17:39:29 65° W 17:43:45 10° S
Cosmos 2151 Rocket 4.2 17:35:43 10° SSE 17:39:45 34° E 17:43:51 10° NNE
Lacrosse 5 rocket 2.8 17:36:11 10° WNW 17:40:04 32° N 17:44:07 10° ENE
Cosmos 494 Rocket 4.3 17:37:54 10° NNW 17:43:01 48° ENE 17:48:07 10° SE
HJ-1C 3.6 17:41:47 10° SSE 17:44:58 48° ENE 17:48:11 10° N
COSMO-SKYMED 1 3.2 17:44:48 10° N 17:49:06 61° WNW 17:53:22 10° SSW
Nadezhda 4 Rocket 4.1 17:46:12 10° N 17:52:15 56° ENE 17:58:15 10° SSE
Cosmos 1689 Rocket 4.4 17:50:16 10° N 17:52:55 29° WNW 17:55:33 10° SW
Cosmos 1805 4.5 17:50:05 10° SE 17:53:06 22° E 17:56:08 10° NE
Ariane Rocket 3.7 17:48:58 10° SE 17:53:29 34° ENE 17:58:04 10° N
H-2A R/B 2.0 17:49:21 10° SSE 17:54:19 68° ENE 17:59:28 10° N
SL-08 RB Rocket 4.3 17:51:15 10° SE 17:55:27 38° ENE 17:59:38 10° N
OBJECT-B 2.9 17:55:36 12° ENE 17:56:14 12° ENE 17:57:39 10° NE
SJ 16-02 4.2 17:53:23 10° W 17:56:32 19° NW 17:59:42 10° N
Exosat Rocket 4.1 17:53:57 10° S 17:58:43 33° ESE 18:03:11 10° NE
USA 116 3.6 17:55:43 10° NNE 17:59:22 70° ESE 18:03:26 10° S
Cosmos 2263 Rocket 3.5 17:54:33 10° WSW 17:59:49 42° NW 18:05:10 10° NNE
COSMOS 2406 4.0 17:56:27 10° NNW 18:01:40 35° NE 18:05:51 15° ESE
KORONAS-FOTON 4.2 17:58:10 10° N 18:01:56 43° ENE 18:05:41 10° SSE
Cosmos 1844 Rocket 2.7 17:58:38 10° S 18:04:06 60° ESE 18:09:37 10° NE
Cosmos 1707 3.4 18:00:50 10° NNW 18:04:36 57° W 18:08:21 10° S
Cosmos 372 Rocket 4.2 18:00:43 10° SSW 18:05:57 77° WNW 18:11:12 10° NNE
Cosmos 1626 3.4 18:03:08 10° NNE 18:06:06 22° ENE 18:07:28 18° E
NOSS 3-2 (C) 4.1 17:59:30 10° NW 18:06:56 89° SW 18:15:23 10° SE
Cosmos 2278 Rocket 3.8 18:09:59 14° E 18:09:59 14° E 18:11:49 10° ENE
Cosmos 1844 3.8 18:06:01 10° S 18:11:32 56° ESE 18:17:03 10° NE
Cosmos 2034 Rocket 4.0 18:05:27 10° S 18:11:43 66° E 18:17:59 10° NNE
ISS -3.6 18:09:06 10° W 18:12:29 75° NNW 18:14:49 19° ENE
Meteor 2-5 Rocket 4.0 18:07:01 10° N 18:12:29 47° ENE 18:18:02 10° SE
NOSS 3-4 (A) 4.0 18:07:54 10° S 18:13:04 33° ESE 18:18:32 10° NE
NOSS 3-4 (C) 4.0 18:08:01 10° S 18:13:11 32° ESE 18:18:38 10° NE
USA 186 2.2 18:11:03 16° SE 18:13:21 41° ENE 18:16:29 10° N
NOSS 5 (C) 4.3 18:10:20 10° NW 18:13:24 67° NE 18:15:45 20° SE
Lacrosse 4 Rocket 3.1 18:11:54 10° N 18:14:52 19° NE 18:16:33 15° ENE
Meteor 1-24 Rocket 4.2 18:09:52 10° N 18:15:03 39° ENE 18:19:24 15° SE
Meteor 1-12 Rocket 4.4 18:09:17 10° SSW 18:15:09 86° W 18:20:58 10° NNE
Cosmos 1300 Rocket 3.8 18:16:00 10° SSW 18:20:25 73° W 18:24:53 10° N
Okean 1 Rocket 3.4 18:19:21 10° SSE 18:23:36 45° E 18:27:54 10° NNE
SL-14 R/B 4.1 18:21:40 10° N 18:25:14 32° ENE 18:26:27 26° ESE
CENTAUR R/B 3.3 18:17:59 10° NW 18:25:59 79° SW 18:34:46 10° SSE
Resurs 01 Rocket 2.9 18:25:52 21° E 18:26:51 22° ENE 18:30:16 10° NNE
Cosmos 1833 Rocket 3.3 18:21:53 10° NNW 18:27:13 40° NE 18:30:11 23° ESE
Cosmos 2298 Rocket 4.2 18:21:54 10° SSW 18:27:14 76° WNW 18:32:36 10° NNE
Cosmos 1025 Rocket 4.2 18:29:46 10° NNW 18:33:58 44° W 18:38:08 10° SSW
Cosmos 1766 3.4 18:30:49 10° SSE 18:34:36 48° E 18:38:25 10° NNE
Okean 2 Rocket 4.0 18:30:39 10° SSW 18:35:01 52° WNW 18:39:24 10° N
ATLAS 2AS CENTAUR R/B 3.2 18:28:05 10° S 18:35:35 48° ESE 18:43:04 10° NE
ATLAS 3B R/B 2.9 18:31:40 10° NW 18:38:24 59° NE 18:42:34 25° ESE
Cosmos 1634 Rocket 4.1 18:33:35 10° SSE 18:39:29 49° E 18:45:25 10° NNE
Abrixas rocket 3.2 18:39:18 10° W 18:41:49 28° SSW 18:42:11 27° S
SPOT 3 Rocket 4.0 18:40:10 28° ESE 18:42:20 42° ENE 18:47:11 10° N
ARIANE 5 R/B 4.2 18:42:31 19° ENE 18:42:31 19° ENE 18:45:31 10° NNE
CREW DRAGON DEMO-1 DEB 4.0 18:40:50 10° W 18:43:37 32° SSW 18:44:16 29° S
Cosmos 1125 Rocket 3.6 18:42:32 10° SSW 18:47:52 80° WNW 18:53:13 10° NNE
Resurs 1-3 3.9 18:48:54 37° ESE 18:50:07 48° ENE 18:54:22 10° N
SJ-6B 2.6 18:48:31 29° SSE 18:50:20 86° ENE 18:54:10 10° NNW
Cosmos 1892 Rocket 3.8 18:46:27 10° N 18:50:39 45° ENE 18:51:25 40° ESE
CZ-4 R/B 4.5 18:50:29 10° SW 18:53:08 16° W 18:55:47 10° NW
Cosmos 2195 Rocket 4.4 18:47:49 10° N 18:54:08 86° E 19:00:07 11° S
Cosmos 1627 Rocket 4.5 18:49:17 10° N 18:55:44 81° E 19:01:24 14° SSE
Cosmos 1674 3.8 18:52:28 10° NNW 18:56:10 45° W 18:59:49 10° SSW
Cosmos 2026 Rocket 4.0 18:50:35 10° N 18:57:00 79° E 19:02:16 16° SSE
Cosmos 1092 Rocket 4.0 18:50:58 10° N 18:57:10 82° W 19:03:23 10° S
Cosmos 2285 Rocket 4.0 18:52:16 10° SSW 18:58:36 86° WNW 19:05:01 10° NNE
MOS 1 Rocket 4.2 18:57:51 10° N 19:02:05 46° WNW 19:06:11 10° SW
FREGAT/IRIS 3.4 19:04:41 43° WNW 19:04:41 43° WNW 19:06:45 10° NNW
Cosmos 1428 Rocket 4.4 18:59:15 10° N 19:05:34 85° E 19:10:06 20° S
TSX-5 3.9 19:05:48 10° SSW 19:09:44 83° ESE 19:14:54 10° NNE
ARGOS 4.4 19:05:34 10° SSW 19:10:34 39° W 19:15:37 10° NNW
CZ-2C R/B 2.7 19:06:46 10° NNE 19:12:22 87° WNW 19:18:00 10° SSW
Cosmos 1340 Rocket 2.6 19:15:11 78° E 19:15:11 78° E 19:19:09 10° NNE
Cosmos 2279 Rocket 4.0 19:12:59 30° SSE 19:15:59 58° E 19:22:08 10° NNE
Cosmos 1733 3.5 19:13:48 15° SSW 19:16:50 64° WNW 19:20:39 10° N
MetOp-B 4.4 19:17:29 45° E 19:18:03 47° ENE 19:23:10 10° N
Lacrosse 5 rocket 2.3 19:15:50 10° NW 19:20:03 42° NNE 19:20:43 39° NE
Cosmos 2098 Rocket 4.0 19:13:39 10° N 19:20:19 52° ENE 19:21:19 47° ESE
Cosmos 2082 Rocket 2.3 19:14:48 10° NNW 19:20:21 55° NE 19:21:17 49° E
DMSP B5D2-2 4.1 19:16:54 10° NNE 19:22:13 83° WNW 19:27:30 10° SSW
BREEZE-M R/B 3.4 19:17:18 10° WSW 19:24:25 69° SSW 19:24:25 69° SSW
Spot 2 Rocket 4.2 19:25:14 38° NE 19:25:14 38° NE 19:29:34 10° N
OBJECT-B 1.9 19:28:48 44° WNW 19:28:48 44° WNW 19:31:23 10° NNW
Cosmos 2142 Rocket 4.4 19:24:37 16° S 19:29:43 82° E 19:35:56 10° N
Ariane Rocket 4.2 19:28:06 12° SSW 19:32:23 39° W 19:37:10 10° NNW
Terra 3.7 19:42:51 19° NE 19:42:51 19° NE 19:44:57 10° NNE
Cosmos 1626 3.7 19:38:05 10° NNW 19:41:24 31° W 19:42:02 29° WSW
Okean 1-7 Rocket 3.7 19:37:18 10° NNW 19:41:51 78° W 19:41:51 78° W
Cosmos 1455 Rocket 3.9 19:47:18 44° N 19:47:18 44° N 19:50:19 10° N
COSMOS 2406 3.9 19:40:43 10° NW 19:46:10 50° WSW 19:47:55 37° SSW
SPOT 1/Viking Rocket 4.0 19:48:44 48° NE 19:48:44 48° NE 19:53:01 10° N
ISS -1.6 19:46:07 10° WNW 19:47:46 26° WNW 19:47:46 26° WNW
ATLAS CENTAUR R/B 3.9 19:50:39 10° N 19:51:16 11° NNE 19:51:16 11° NNE
Cosmos 2278 Rocket 2.0 19:46:16 10° SSW 19:51:55 84° ESE 19:57:38 10° NNE
Lacrosse 4 Rocket 2.3 19:49:56 10° NW 19:52:52 46° NW 19:52:52 46° NW
Cosmos 909 Rocket 3.8 19:52:44 10° NW 19:59:19 88° SW 19:59:55 75° SSE
Cosmos 2266 Rocket 3.8 19:54:30 10° N 20:00:34 78° ENE 20:00:34 78° ENE
Resurs 01 Rocket 2.4 20:03:26 49° W 20:03:26 49° W 20:07:23 10° NNW
NOSS 3-4 (A) 3.8 19:57:38 10° WSW 20:03:34 62° NW 20:09:59 10° NE
NOSS 3-4 (C) 3.8 19:57:44 10° WSW 20:03:39 63° NW 20:10:06 10° NE
Cosmos 1833 Rocket 3.5 20:05:54 10° NW 20:11:13 43° WSW 20:11:54 41° SW
Cosmos 2251 Rocket 3.9 20:08:48 10° NNW 20:13:44 61° W 20:13:44 61° W
ERS-1 Rocket 4.0 20:17:40 39° N 20:17:40 39° N 20:20:57 10° N
ARIANE 5 R/B 4.0 20:20:05 36° NW 20:20:05 36° NW 20:22:50 10° NNW
ATLAS 2AS CENTAUR R/B 3.5 20:18:42 10° WSW 20:26:35 60° NW 20:34:19 10° NE
ATLAS 3B R/B 3.5 20:22:35 10° NW 20:28:58 42° WSW 20:29:50 40° SW
SPOT 5 4.0 20:33:48 42° N 20:33:48 42° N 20:37:23 10° N
Lacrosse 5 rocket 4.0 20:55:02 10° WNW 20:56:20 19° WNW 20:56:20 19° WNW
Cosmos 2082 Rocket 3.8 20:59:22 10° NW 21:03:08 27° W 21:03:08 27° W
Terra 4.1 21:21:45 22° NNW 21:21:45 22° NNW 21:23:29 10° NNW
Cosmos 2278 Rocket 4.2 21:33:00 13° W 21:36:44 24° NW 21:41:16 10° NNE
Cosmos 2227 Rocket 4.5 22:08:51 10° N 22:11:40 18° NNE 22:11:40 18° NNE
ATLAS 2AS CENTAUR R/B 4.5 22:12:13 10° WNW 22:19:08 31° NNW 22:25:50 10° NE
Cosmos 1943 Rocket 4.4 22:24:03 19° NNE 22:24:03 19° NNE 22:25:38 10° NNE
CZ-4C R/B 4.2 22:45:17 27° N 22:45:17 27° N 22:49:32 10° NE
Cosmos 2297 Rocket 4.4 22:54:19 10° NNW 22:56:26 21° N 22:56:26 21° N
Cosmos 2369 Rocket 4.4 23:10:31 21° N 23:10:31 21° N 23:12:43 10° NNE
SL-16 R/B 3.9 23:50:37 34° NNE 23:50:37 34° NNE 23:54:31 10° N
CZ-2D R/B 4.5 23:50:38 10° NE 23:52:17 17° NE 23:52:17 17° NE
